Regional Weather Roundup
Issued by NWS Cleveland, OH

Home | Current Version | Previous Version | Text Only | Print | Product List | Glossary On
Versions: 1 2 3 4 5 6 7 8 9 10 11 12 13 14 15 16 17 18 19 20 21 22 23 24 25 26 27 28 29 30 31 32 33 34 35 36 37 38 39 40 41 42 43 44 45 46 47 48 49 50
000
ASUS41 KCLE 050310
RWRCLE
OHIO REGIONAL WEATHER ROUNDUP
NATIONAL WEATHER SERVICE WILMINGTON, OH
1100 PM EDT MON MAY 04 2015

NOTE: "FAIR" INDICATES FEW OR NO CLOUDS BELOW 12,000 FEET WITH NO
SIGNIFICANT WEATHER AND/OR OBSTRUCTIONS TO VISIBILITY.

OHZ001>008-015>018-024>027-034-035-043-044-050400-
   NORTHWEST OHIO

CITY           SKY/WX    TMP DP  RH WIND       PRES   REMARKS
DEFIANCE       CLOUDY    64  60  87 SW3       30.19R
FINDLAY        CLOUDY    61  58  90 SW5       30.19R
TOLEDO EXPRESS CLOUDY    64  60  87 SW7       30.19R
TOLEDO EXEC    CLOUDY    63  57  81 SW7       30.19R
LIMA           CLOUDY    62  60  93 S3        30.20R FOG
$$

OHZ009>014-019>023-028>033-038-089-050400-
   NORTHEAST OHIO

CITY           SKY/WX    TMP DP  RH WIND       PRES   REMARKS
CLE-HOPKINS    CLOUDY    62  57  83 SW3       30.21R
CLE-LAKEFRONT  MOCLDY    66  57  72 SW12      30.18R
CUY CO. ARPT   PTCLDY    66  61  82 SW7       30.20R
LORAIN-ELYRIA  MOCLDY    60  57  89 SW6       30.20R
ASHTABULA      MOCLDY    57  55  93 CALM      30.21R
AKRON-CANTON   MOCLDY    61  58  90 SW6       30.22S
WOOSTER        MOCLDY    60  58  92 S3        30.21S FOG
MANSFIELD      CLOUDY    61  60  97 S8        30.21S
YOUNGSTOWN     MOCLDY    61  58  90 S6        30.21S
$$

OHZ042-051>053-060>062-070>072-077>081-050400-
  SOUTHWEST OHIO

CITY           SKY/WX    TMP DP  RH WIND       PRES   REMARKS
CINC-COVINGTON FAIR      67  57  70 CALM      30.20R
CINC-LUNKEN    CLOUDY    64  59  83 CALM      30.20R
HAMILTON       MOCLDY    62  59  90 CALM      30.20R
DAYTON         CLOUDY    67  59  75 E5        30.20R
WRIGHT-PAT AFB CLOUDY    68  58  71 NE5       30.19S
DAYTON GENERAL MOCLDY    65  58  78 CALM      30.19R
WILMINGTON     MOCLDY    63  55  75 CALM      30.21R
$$

OHZ036-037-039>041-045>050-054>059-063>069-073>076-082>088-050400-
  CENTRAL AND SOUTHEAST OHIO

CITY           SKY/WX    TMP DP  RH WIND       PRES   REMARKS
COLUMBUS       CLOUDY    63  63 100 CALM      30.20R FOG
OSU AIRPORT    MOCLDY    61  60  97 CALM      30.20R FOG
BOLTON FIELD   CLOUDY    61  60  96 CALM      30.21R
RICKENBACK AFB MOCLDY    61  58  90 NE3       30.20R
NEWARK         CLOUDY    63  60  90 CALM      30.20S FOG
MARION         CLOUDY    61  60  97 CALM      30.21R FOG
LANCASTER      MOCLDY    62  59  90 N5        30.21R
ZANESVILLE     CLOUDY    62  59  90 CALM      30.21F
NEW PHILLY     CLOUDY    65  62  90 SE5       30.22F FOG
$$


USA.gov is the U.S. government's official web portal to all federal, state and local government web resources and services.